Weather in Krasnaya Slobodka

Russia / Orenburg Oblast     53°13′43″N   52°31′06″E
temp.,
°C
wind,
m/s
gust,
m/s
humid.,
%
clouds,
%
prec.,
mm/h
press.,
hPa
HPBL,
m
13 june, sun
sun1323:00+17s33885 3.3 101337
02:00+15sse22895 0.0 101420
05:00+14se36955 0.6 1015107
08:00+18se36820 0.0 1015216
11:00+22sse57670 0.0 1015668
14:00+25sse56576 0.3 10151204
17:00+25se565515 0.5 10151362
20:00+22se486884 0.0 1015224
14 june, mon
mon1423:00+18ese3472100 0.0 101546
02:00+16e2276100 0.0 101511
05:00+15ene227932 0.0 101513
08:00+19ese237330 0.0 1017155
11:00+24sse3462100 0.0 1017565
14:00+27se4450100 0.0 10171203
17:00+28se464565 0.0 10161631
20:00+24ese3767100 0.0 1015142
15 june, tue
tue1523:00+20ese466098 0.0 101586
02:00+18ese376268 0.0 1015107
05:00+17sse22639 0.0 101525
08:00+20s497620 0.0 1016294
11:00+20s3980100 0.0 1016339
14:00+21sw1375100 0.0 1016107
17:00+25se3462100 0.0 1015249
20:00+23sse237168 0.0 101474
16 june, wed
wed1623:00+20e226392 0.0 101415
02:00+19e4858100 0.0 1013118
05:00+19se4115684 0.0 1012159
08:00+21ese3764100 0.0 1012148
11:00+25se51160100 0.0 1012423
14:00+27se61152100 0.0 1011959
17:00+28se6115063 0.0 10101424
20:00+26se49655 0.0 1009212
17 june, thu
thu1723:00+21s41066100 0.0 1009164
02:00+19ssw22649 0.2 100911
05:00+17sw337231 0.2 100940
08:00+21w35805 0.0 1009235
11:00+25w456761 0.0 1009886
14:00+26wnw6664100 0.6 10101224
17:00+26nw5664100 1.3 10101248
20:00+22n711855 3.9 1012665